Helicity
25 29 30 22 17 8 5 4 5 6 8 9 10 13 16 13 20 40 49 30 26 20 15 6 -1 -4 19 36 44 46 30 8 3 1 16 11 2 15 21 22 23 31 24 24 26 17 17
19 23 20 18 17 7 -5 -10 -0 7 11 12 5 12 17 17 20 40 40 22 15 22 20 10 -4 5 26 68 28 44 29 9 20 11 11 17 24 28 28 29 27 35 37 26 27 33 36
17 24 22 17 12 4 -3 6 20 -0 -9 3 2 9 16 19 22 36 29 13 16 18 20 13 1 22 61 62 19 33 9 16 16 15 18 28 22 23 30 41 27 51 64 50 59 31 38
22 20 18 19 17 5 2 15 21 21 6 1 3 8 18 23 22 45 22 13 22 15 23 5 4 20 55 28 23 23 24 8 4 12 21 28 27 48 39 44 41 47 49 55 53 57 48
12 16 16 21 17 11 11 18 21 24 26 12 14 14 17 27 26 60 18 28 26 13 26 -0 20 32 50 9 30 43 26 24 12 14 19 34 42 47 26 53 71 61 79 41 31 62 37
14 11 15 26 28 26 27 24 22 25 21 22 21 24 24 28 32 63 9 32 20 11 16 23 23 35 26 34 40 46 25 25 30 25 36 42 47 77 70 77 94 80 64 47 44 11 17
8 12 23 34 38 36 34 27 24 22 23 22 20 31 29 18 16 27 34 35 36 21 97 76 53 48 43 43 29 51 38 32 43 65 57 45 107 90 77 63 68 87 86 66 56 51 22
12 17 31 40 46 42 39 38 27 21 23 25 23 26 23 4 5 35 39 57 53 44 71 70 34 23 35 43 44 59 21 62 77 80 44 76 107 62 57 57 66 95 89 74 58 41 46
10 17 33 46 50 46 46 41 30 31 31 30 26 21 24 3 28 28 -5 29 11 53 84 67 33 31 33 34 68 42 42 39 63 64 51 88 76 61 73 76 92 89 94 89 98 50 72
14 21 34 44 46 50 50 46 39 31 29 28 30 17 19 -2 32 21 24 25 20 53 111 13 29 32 42 56 76 51 32 48 61 65 59 82 51 73 79 96 82 103 77 104 96 98 108
24 25 35 42 47 54 61 58 46 35 30 30 28 17 7 34 20 20 30 16 33 42 106 30 41 30 31 80 64 67 25 41 69 65 70 77 77 74 126 89 75 79 89 98 120 114 118
28 26 25 33 41 52 55 53 49 42 40 38 34 13 10 20 16 28 27 23 37 83 109 71 43 60 70 67 59 54 64 49 54 70 74 72 59 86 72 66 66 70 106 131 130 122 126
29 28 27 35 41 52 54 52 48 48 44 39 29 2 25 14 35 32 32 38 65 125 58 65 60 52 43 57 78 82 80 93 104 129 98 65 80 73 69 82 74 99 113 118 163 168 150
36 30 29 43 49 54 55 53 58 56 53 51 21 17 17 28 34 36 41 58 110 73 77 56 58 44 100 93 91 63 91 93 92 113 148 143 118 96 75 98 106 118 105 163 191 188 202
36 32 29 42 53 55 57 52 44 38 39 73 27 18 25 46 31 46 58 115 82 71 50 56 70 145 98 76 94 119 115 105 84 88 146 149 92 95 85 85 94 130 161 127 213 217 221
42 39 32 42 52 52 51 47 47 37 41 64 55 23 26 29 33 40 83 86 59 59 70 65 93 106 129 97 122 127 129 112 107 105 80 130 123 114 90 104 113 135 132 187 193 244 202
45 41 37 46 55 50 49 59 50 36 26 27 36 45 21 33 37 55 91 75 64 63 67 92 93 103 107 100 99 106 129 132 111 121 157 162 206 122 128 145 144 164 165 195 188 237 266
39 44 43 53 70 62 76 80 62 41 31 51 31 71 26 23 60 60 76 60 45 53 69 78 86 83 89 97 102 123 135 136 129 118 157 149 209 172 118 113 142 151 159 181 238 236 346
47 50 57 71 95 79 97 91 69 51 44 33 47 36 11 24 104 85 43 49 42 47 52 68 78 101 109 99 104 125 138 136 147 160 186 162 205 183 166 161 160 203 199 210 232 255 338
62 66 80 97 102 90 106 95 71 63 37 53 45 84 40 65 24 61 76 75 64 44 57 63 86 113 103 101 115 123 146 166 159 166 148 168 246 253 249 210 188 178 183 206 240 273 294
84 85 90 89 103 87 114 102 108 76 63 72 62 61 45 78 72 75 60 80 83 83 68 88 91 85 95 98 112 130 133 158 171 184 203 235 223 219 169 121 162 165 140 174 215 195 257
96 95 78 88 93 98 117 144 126 121 89 115 94 100 92 78 71 88 75 83 101 74 87 94 106 116 127 133 142 170 191 161 135 179 213 204 195 193 182 134 138 116 97 153 129 126 175
89 98 101 80 62 98 108 164 187 185 160 155 154 174 193 134 105 108 75 58 64 103 81 128 128 152 138 96 129 140 159 169 184 212 211 187 206 208 164 147 141 156 137 132 209 223 192
119 92 96 79 82 121 127 171 242 257 250 227 186 190 172 154 161 111 123 127 138 140 152 178 185 184 139 140 115 171 181 166 168 165 186 213 209 204 208 177 204 186 189 233 249 225 249
46 91 44 83 98 129 183 227 288 323 301 325 293 247 216 199 181 140 156 185 207 197 208 194 197 204 165 154 132 147 149 178 161 218 132 109 196 217 212 213 183 251 241 212 187 233 254
69 79 41 35 69 115 162 211 322 348 375 442 356 370 289 232 201 216 206 231 188 185 185 200 243 221 199 177 158 166 155 175 154 179 199 193 194 219 236 238 201 225 132 155 151 269 293
48 34 44 54 62 116 145 213 276 394 420 480 314 391 370 204 180 230 205 230 265 226 203 247 187 177 182 175 146 128 151 208 187 187 182 209 199 217 216 216 171 195 112 83 273 241 207
71 67 71 79 89 109 130 190 316 449 487 525 358 357 315 287 258 228 243 261 192 235 218 278 222 182 195 184 116 121 161 193 194 199 188 196 210 198 203 212 150 174 181 228 201 152 122
97 96 95 98 108 117 118 117 321 394 488 513 442 363 369 224 162 190 194 245 251 318 320 275 258 255 155 182 185 213 243 238 202 209 165 187 199 212 194 217 203 136 94 127 125 118 91
Wind_Speed
33 39 30 26 29 19 10 4 11 16 18 17 20 20 19 18 15 12 12 10 16 25 29 29 28 29 34 42 38 21 11 22 33 39 47 36 34 34 35 36 36 36 32 30 30 27 25
36 39 25 28 38 38 34 14 11 16 25 24 18 19 19 20 17 13 9 11 24 33 32 31 31 33 36 41 27 19 16 37 47 43 47 42 38 38 36 34 32 34 34 32 31 34 35
39 38 31 35 38 45 55 63 46 12 22 20 19 20 20 21 18 16 7 19 31 34 33 32 34 41 49 40 29 24 32 36 41 40 38 40 36 35 31 30 31 33 29 31 38 34 34
38 36 35 42 44 50 57 64 67 71 67 61 61 43 30 23 20 19 5 29 33 33 31 29 33 36 40 32 29 35 28 34 41 40 36 36 37 39 33 33 31 28 28 27 30 43 34
39 41 44 48 47 55 60 65 69 72 75 62 64 63 46 32 22 26 5 32 34 29 32 30 35 36 36 30 39 32 39 36 32 36 41 37 37 37 33 32 32 36 30 26 24 41 45
40 44 47 51 54 59 63 67 70 73 74 76 66 62 57 42 25 26 19 28 27 39 31 34 38 37 40 33 30 32 36 36 36 35 36 41 38 37 42 45 40 38 33 26 23 25 31
39 44 49 53 57 61 64 67 70 73 75 77 66 55 60 60 37 55 42 35 38 38 56 47 41 41 36 29 33 44 40 34 38 44 41 40 45 45 42 42 40 37 36 29 22 23 34
39 43 48 53 57 61 65 67 70 73 76 78 77 70 69 62 57 68 54 47 41 32 45 43 39 37 35 35 38 48 51 41 44 43 40 41 43 38 38 41 39 38 39 40 26 25 33
37 42 47 51 56 60 64 68 70 73 76 78 79 79 74 60 46 55 61 50 34 33 40 41 40 40 39 41 42 45 52 41 47 48 51 43 36 37 40 40 42 43 42 41 38 35 34
34 38 44 49 53 58 63 67 70 73 76 78 79 78 76 66 45 48 50 49 37 33 38 40 41 39 37 37 39 39 46 43 45 45 43 41 39 40 41 43 42 43 36 38 40 48 45
32 36 41 46 51 56 61 66 71 73 76 78 79 75 69 63 45 49 41 43 34 33 38 37 37 32 38 43 39 45 42 43 45 44 40 39 39 43 43 40 39 40 37 41 43 41 40
32 34 37 43 48 52 58 64 70 74 76 77 77 72 60 49 47 46 45 38 34 36 38 38 36 43 46 46 43 41 43 45 42 43 40 37 33 36 38 37 39 40 42 46 42 38 48
30 32 36 41 46 50 56 62 69 74 76 77 77 64 50 44 49 45 45 40 38 43 38 44 44 48 47 49 46 50 51 55 51 48 47 43 38 35 36 42 40 51 53 58 51 56 52
30 33 36 40 45 49 54 62 69 75 79 80 76 54 45 44 45 45 43 42 46 40 43 40 46 49 49 51 45 53 49 52 51 46 46 47 44 43 43 44 45 47 49 52 54 57 59
31 34 38 40 43 49 53 58 67 73 78 81 64 50 43 48 48 42 43 48 42 41 41 50 46 48 47 48 52 50 51 46 47 49 51 51 44 41 41 39 41 46 50 43 51 51 58
31 35 37 38 40 46 51 55 62 72 78 74 56 47 43 57 45 40 44 43 39 39 44 47 50 46 48 52 51 52 45 45 44 48 45 44 53 39 37 38 40 41 35 52 51 61 63
33 34 36 36 36 41 47 52 59 69 76 60 51 47 43 58 42 45 48 44 41 39 44 48 49 47 47 50 48 48 43 45 42 42 41 40 40 42 44 43 46 43 44 43 44 44 58
27 25 30 34 38 38 41 49 55 62 72 56 49 45 48 50 46 45 49 47 43 44 44 45 46 45 46 48 49 47 44 42 44 46 51 44 42 51 48 44 40 37 41 41 53 58 46
35 33 33 36 36 37 37 42 45 51 57 52 50 39 43 44 45 50 44 45 43 47 48 48 47 45 45 48 51 44 47 41 47 45 44 43 47 66 57 46 42 43 40 39 39 43 48
37 39 38 38 35 33 34 33 35 42 46 48 46 47 44 43 42 45 47 45 47 43 46 45 46 44 47 50 44 48 48 44 43 44 43 40 42 46 56 54 49 53 46 39 41 54 54
44 47 45 41 38 35 34 29 30 32 37 42 45 44 45 48 49 46 42 42 47 49 43 45 48 43 47 55 55 50 50 51 45 51 45 41 55 49 45 48 50 52 51 41 46 41 50
46 47 46 46 42 38 34 27 24 25 30 40 44 44 43 48 47 46 45 44 44 43 45 49 46 46 45 51 51 60 54 52 51 46 42 43 52 53 58 51 50 52 46 44 42 36 40
44 47 50 47 43 38 31 24 22 20 25 40 38 39 45 48 50 51 49 45 45 45 45 43 46 49 51 52 52 51 44 43 42 45 49 50 48 54 60 51 60 61 48 39 40 39 42
50 47 45 47 41 35 31 28 23 18 22 34 35 36 47 51 44 45 47 45 48 47 52 50 45 49 50 50 55 51 48 47 43 41 33 42 39 42 57 59 66 43 47 41 40 42 46
53 55 49 43 39 37 36 33 29 25 24 34 31 33 39 51 46 49 48 49 53 50 49 50 49 49 51 55 60 64 57 51 45 41 33 19 33 47 56 58 58 47 42 44 47 46 47
68 65 59 54 47 38 35 35 32 29 25 32 32 29 35 48 53 47 53 54 57 55 55 53 49 43 45 53 58 62 63 56 51 45 44 29 31 42 50 63 67 43 44 48 40 49 56
69 66 63 61 63 51 46 42 39 34 30 32 38 29 40 51 49 40 55 56 45 50 57 60 56 51 42 51 56 55 57 47 53 51 46 42 41 44 47 54 48 46 49 43 51 55 58
75 76 74 68 63 65 66 54 31 29 30 38 43 36 41 52 51 48 46 48 49 48 57 53 57 51 45 48 51 52 54 50 53 42 43 46 45 46 41 48 57 49 47 55 54 57 64
78 79 76 73 70 61 59 54 35 28 28 34 47 39 41 54 55 50 51 51 46 44 49 45 49 42 39 45 44 45 51 47 46 64 37 50 33 41 34 42 39 52 53 50 54 64 68
Wind_Direction
333 339 314 303 305 292 291 10 52 51 43 27 24 16 358 348 345 12 23 50 79 88 93 96 100 104 98 80 82 96 92 85 78 70 60 79 87 83 81 74 70 64 66 52 40 43 43
336 335 298 301 316 313 310 302 51 47 46 38 1 4 353 336 332 352 7 73 81 83 87 93 96 94 87 72 95 96 91 67 55 67 63 70 76 74 80 77 75 60 51 52 45 23 15
341 328 307 313 315 323 339 354 37 27 320 23 349 343 354 333 328 329 328 81 77 78 86 90 89 82 64 77 86 83 69 68 57 66 74 70 73 72 76 80 74 60 67 53 30 31 25
333 317 313 322 323 330 341 357 9 3 338 328 328 320 323 328 320 318 295 76 77 78 82 89 83 79 73 79 81 65 73 69 52 57 72 68 63 62 69 70 65 65 66 56 42 12 25
335 329 328 332 327 339 343 353 357 2 359 328 328 327 319 318 316 309 108 79 75 82 80 83 75 76 69 73 61 63 54 59 64 59 51 55 54 57 63 56 52 49 45 45 45 17 3
339 340 336 339 338 349 354 358 359 358 2 346 329 325 322 316 313 309 77 76 80 66 74 76 68 67 59 63 64 59 53 54 53 49 48 39 45 45 38 34 30 31 36 40 34 30 20
343 343 345 347 350 353 354 357 360 357 356 348 328 319 322 323 329 351 44 55 48 55 39 51 58 62 61 63 61 41 42 52 45 37 35 34 31 30 34 34 34 32 28 27 32 34 13
342 343 346 348 351 354 357 358 0 358 354 351 343 331 329 325 20 1 33 34 46 62 42 54 61 63 60 53 47 33 27 37 32 30 31 31 31 37 35 28 26 24 18 17 28 30 10
344 339 344 350 355 357 357 355 357 356 353 348 348 348 336 322 32 25 26 32 56 59 32 38 49 49 47 41 37 31 23 33 27 24 23 29 35 31 26 22 17 16 16 16 13 9 16
343 346 347 352 355 356 355 356 354 354 354 350 350 357 348 340 27 30 31 25 40 50 35 33 31 38 39 38 36 35 28 32 28 23 26 30 26 22 19 16 20 10 19 11 5 6 3
339 341 346 349 351 353 354 354 355 354 352 351 351 352 359 12 26 23 28 23 39 41 25 32 34 44 32 29 25 23 30 27 22 20 22 18 22 12 13 16 17 9 11 5 4 6 8
329 337 343 347 349 352 354 355 354 352 350 353 353 351 6 19 24 22 17 27 34 30 21 23 30 23 19 22 22 22 23 24 23 19 23 23 24 22 19 17 16 10 4 3 11 16 3
322 330 336 341 343 347 349 350 348 349 352 352 349 355 15 23 13 17 17 20 22 12 20 12 12 12 12 10 15 13 10 8 8 8 11 12 19 22 22 8 10 5 2 354 359 356 357
313 321 327 333 338 342 347 343 344 343 337 341 341 2 12 19 14 14 18 17 5 13 10 14 5 3 7 10 14 6 4 3 9 13 8 6 1 11 10 7 3 6 2 355 351 352 348
305 312 319 327 333 336 340 345 340 343 342 336 352 3 10 10 9 17 14 2 5 9 7 359 4 5 5 7 2 5 3 3 5 6 1 358 0 4 6 11 7 360 357 3 351 353 349
301 307 313 321 328 330 336 342 346 339 339 345 357 1 6 358 11 17 10 3 6 8 4 1 356 2 358 357 0 1 4 3 3 3 8 3 350 2 6 5 5 360 8 353 354 347 347
296 303 308 315 324 330 333 338 341 336 335 353 358 355 5 356 14 9 359 1 4 9 4 358 353 354 357 356 356 357 359 357 3 2 4 360 355 356 353 355 351 354 352 357 355 352 344
288 295 304 310 316 325 333 334 338 340 338 353 352 355 358 3 1 5 357 357 1 0 3 359 355 354 354 355 352 352 355 355 357 355 349 356 352 343 345 350 353 356 352 352 344 343 346
286 291 298 303 310 318 329 333 339 344 345 349 352 2 2 6 356 355 360 356 359 354 355 354 352 354 355 351 349 352 350 356 355 354 354 356 349 339 345 353 360 352 355 357 354 348 336
281 289 295 299 303 312 322 329 338 342 346 350 345 342 354 2 5 358 353 353 352 355 353 354 351 352 350 347 347 345 346 350 352 350 349 348 340 333 331 337 341 335 335 339 338 333 334
280 287 290 293 298 303 311 318 329 337 345 344 340 339 341 338 343 348 353 351 348 346 350 350 349 348 347 342 341 340 343 343 345 343 345 343 333 334 332 330 331 330 330 332 327 325 327
276 284 287 290 292 294 298 303 315 324 337 331 328 331 337 334 337 335 339 342 342 344 342 340 339 342 342 337 336 332 335 338 336 344 344 346 334 337 331 331 331 328 329 329 328 328 328
273 282 286 287 287 288 287 289 295 304 323 322 325 329 327 326 328 327 330 335 335 339 338 337 336 335 332 330 333 333 333 332 331 331 331 332 334 336 334 343 338 334 347 347 347 350 345
281 282 283 283 282 278 276 275 279 277 300 314 319 325 317 318 319 325 328 330 331 331 328 332 333 332 336 337 333 334 332 328 325 321 325 331 336 339 334 339 334 350 355 355 352 351 350
285 287 291 287 284 275 272 265 262 267 273 302 310 312 315 315 318 321 322 325 328 327 323 323 324 327 333 334 332 331 332 335 339 343 342 334 336 336 335 336 336 344 352 348 347 345 349
282 283 287 290 290 282 273 271 259 264 265 291 297 306 312 314 312 320 323 321 318 321 322 323 327 333 333 330 330 327 326 330 332 339 351 352 345 337 337 333 333 348 348 346 347 333 346
281 283 286 287 288 286 283 278 267 264 260 289 297 293 303 307 311 315 318 321 325 323 322 323 323 324 331 326 323 323 324 331 328 330 335 340 337 328 330 332 339 344 343 349 337 338 343
275 276 278 283 287 285 284 282 268 257 259 289 296 290 299 305 307 306 311 316 320 317 319 326 325 324 328 326 326 326 326 330 327 334 337 334 335 335 339 334 334 348 347 341 337 337 337
275 275 276 279 284 289 286 285 268 255 257 293 296 297 304 307 310 311 311 312 312 316 319 321 321 329 330 328 330 331 327 331 332 323 341 332 338 340 337 339 345 341 338 343 345 340 337